This is the latest recevied weather packets stored in our database for station/object KC9VAF. If no packets are shown the sender has not sent any weather packets the latest 10 day(s).
| Time | Temp. | Humidity | Pressure | Rain* | Wind** | Luminosity | Snow |
|---|---|---|---|---|---|---|---|
| 1778252427 | 15° C | 43% | 1011.7 hPa | 0 mm | - | 559 W/m² | - |
| 1778252124 | 15° C | 44% | 1011.5 hPa | 0 mm | - | 487 W/m² | - |
| 1778251820 | 15° C | 47% | 1011.7 hPa | 0 mm | - | 520 W/m² | - |
| 1778251518 | 14.44° C | 48% | 1011.5 hPa | 0 mm | - | 581 W/m² | - |
| 1778251216 | 13.89° C | 49% | 1011.4 hPa | 0 mm | - | 557 W/m² | - |
| 1778250913 | 13.89° C | 54% | 1011.5 hPa | 0 mm | - | 513 W/m² | - |
| 1778250609 | 13.89° C | 55% | 1011.5 hPa | 0 mm | - | 523 W/m² | - |
| 1778250307 | 13.33° C | 57% | 1011.5 hPa | 0 mm | - | 504 W/m² | - |
| 1778250003 | 12.78° C | 60% | 1011.7 hPa | 0 mm | - | 495 W/m² | - |
| 1778249699 | 12.22° C | 64% | 1011.7 hPa | 0 mm | - | 426 W/m² | - |
| 1778249397 | 11.67° C | 64% | 1011.8 hPa | 0 mm | - | 358 W/m² | - |
| 1778249094 | 11.67° C | 68% | 1011.7 hPa | 0 mm | - | 318 W/m² | - |
| 1778248789 | 11.11° C | 68% | 1011.7 hPa | 0 mm | - | 310 W/m² | - |
| 1778248486 | 10.56° C | 69% | 1011.8 hPa | 0 mm | - | 177 W/m² | - |
| 1778248183 | 10.56° C | 70% | 1012 hPa | 0 mm | - | 129 W/m² | - |
| 1778247879 | 10° C | 71% | 1012.1 hPa | 0 mm | - | 77 W/m² | - |
| 1778247576 | 10° C | 72% | 1011.9 hPa | 0 mm | - | 158 W/m² | - |
| 1778247274 | 9.44° C | 74% | 1012.1 hPa | 0 mm | - | 95 W/m² | - |
| 1778246971 | 9.44° C | 74% | 1012.1 hPa | 0 mm | - | 98 W/m² | - |
| 1778246669 | 8.89° C | 75% | 1012 hPa | 0 mm | - | 69 W/m² | - |
| 1778246365 | 8.89° C | 76% | 1012.2 hPa | 0 mm | - | 97 W/m² | - |
| 1778246060 | 8.89° C | 76% | 1012.2 hPa | 0 mm | - | 88 W/m² | - |
| 1778245758 | 8.89° C | 76% | 1012.1 hPa | 0 mm | - | 102 W/m² | - |
| 1778245455 | 8.33° C | 77% | 1012.1 hPa | 0 mm | - | 92 W/m² | - |
| 1778245150 | 7.78° C | 79% | 1012.1 hPa | 0 mm | - | 112 W/m² | - |
* Rain latest hour (hover to see other rain measurements)
** Current wind speed in m/s (hover to see current wind gust speed)